Regional Weather Roundup
Issued by NWS New Orleans/Baton Rouge, LA

Home | Current Version | Previous Version | Text Only | Print | Product List | Glossary Off
Versions: 1 2 3 4 5 6 7 8 9 10 11 12 13 14 15 16 17 18 19 20 21 22 23 24 25 26 27 28 29 30 31 32 33 34 35 36 37 38 39 40 41 42 43 44 45 46 47 48 49 50

722
ASUS44 KLIX 181401
RWRLIX
NEW ORLEANS REGIONAL WEATHER ROUNDUP
NATIONAL WEATHER SERVICE NEW ORLEANS LA
900 AM CDT THU SEP 18 2014

NOTE: "FAIR" INDICATES FEW OR NO CLOUDS BELOW 12,000 FEET WITH NO
      SIGNIFICANT WEATHER AND/OR OBSTRUCTIONS TO VISIBILITY.
      SKY/WX - SKY CONDITION AND SIGNIFICANT WEATHER.
      TMP - AIR TEMPERATURE.     DP    - DEWPOINT TEMPERATURE.
      RH  - RELATIVE HUMIDITY.   PRES  - PRESSURE.
      HI  - HEAT INDEX.          WCI   - WIND CHILL INDEX.

*  THESE STATIONS ARE NOT NWS OR FAA STATIONS AND ARE NOT UNDER
   NWS QUALITY CONTROL.

LAZ038-040-048-061>063-065>067-069-181500-
SOUTHEAST LOUISIANA

CITY           SKY/WX    TMP DP  RH WIND       PRES   REMARKS
N.O. AUDUBON     N/A     85  77  77 MISG        N/A
N.O. INTL ARPT PTSUNNY   82  75  79 NE7       29.94S
N.O. LAKEFRONT MOSUNNY   82  74  76 NE10      29.94S
N.O. DOWNTOWN*   N/A     81  72  74 N3        29.94S
SLIDELL        MOSUNNY   80  75  84 CALM      29.94R
BATON ROUGE    CLOUDY    75  72  90 NE3       29.95R
BOOTHVILLE     MOSUNNY   83  76  79 E6        29.94S
BELLE CHASSE   PTSUNNY   82  75  79 NE6       29.93S
BOGALUSA*        N/A     77  73  88 CALM      29.96S
GALLIANO*      NOT AVBL
NEW ROADS*       N/A     74  73  98 CALM      29.95R
GONZALES*        N/A     77  77 100 NE3       29.94R
HAMMOND*       NOT AVBL
HOUMA*         MOSUNNY  N/A N/A N/A NE7       29.94S FOG
PORT FOURCHON* PTSUNNY   81  73  78 NE5       29.97R

$$

MSZ070-080>082-181500-
SOUTHERN MISSISSIPPI

CITY           SKY/WX    TMP DP  RH WIND       PRES   REMARKS
MCCOMB         CLOUDY    76  73  91 CALM      29.96R
GULFPORT       PTSUNNY   80  74  81 NE3       29.93S
BILOXI         PTSUNNY   79  74  83 NE3       29.94R
PASCAGOULA     MOSUNNY   80  74  81 CALM      29.94R
STENNIS ARPT*  MOSUNNY   79  72  78 CALM      29.94R

$$

COASTAL OBSERVATIONS
LAKE AND NEARSHORE STATIONS

STATION/POSITION TIME  TEMP    WIND        PRES    WAVE
                       AIR SEA DIR/SP/G            HT/PER
                 (UTC) (F)     (DEG/KT/KT) (MB)    (FT/S)
PASCAGOULA       1300   79      10/  2/  4 1013.3
WAVELAND YACHT   1300   79     360/  3/  3 1013.0
GRAND ISLE       1300   74 86  170/  9/ 13 1014.7
SOUTHWEST PASS   1300   85 90  120/  5/  6 1013.9
NEW CANAL        1300   80 82   40/  8/  9 1014.1
SHELL BEACH      1300   84 80   90/  1/  1 1013.6

OFFSHORE STATIONS

STATION/POSITION TIME  TEMP    WIND        PRES    WAVE
                       AIR SEA DIR/SP/G            HT/PER
                 (UTC) (F)     (DEG/KT/KT) (MB)    (FT/S)
64 S DAUPHIN ISL 1315   83 85   90/  4/  6 1014.2    1/ 5

$$




USA.gov is the U.S. government's official web portal to all federal, state and local government web resources and services.